This is the latest recevied weather packets stored in our database for station/object N5ZP. If no packets are shown the sender has not sent any weather packets the latest 1 day(s).
| Time | Temp. | Humidity | Pressure | Rain* | Wind** | Luminosity | Snow |
|---|---|---|---|---|---|---|---|
| 1778041506 | 16.11° C | 78% | 1007.2 hPa | 0 mm | 2.24 m/s, 318° | 0 W/m² | - |
| 1778041203 | 16.67° C | 77% | 1007 hPa | 0 mm | 2.68 m/s, 328° | 0 W/m² | - |
| 1778040901 | 16.67° C | 77% | 1007.1 hPa | 0 mm | 2.24 m/s, 279° | 0 W/m² | - |
| 1778040598 | 16.67° C | 77% | 1007.3 hPa | 0 mm | 1.79 m/s, 276° | 0 W/m² | - |
| 1778040296 | 16.67° C | 76% | 1007.2 hPa | 0 mm | 2.24 m/s, 302° | 0 W/m² | - |
| 1778039991 | 16.67° C | 76% | 1007.1 hPa | 0 mm | 1.34 m/s, 342° | 0 W/m² | - |
| 1778039689 | 16.67° C | 76% | 1007.2 hPa | 0 mm | 1.79 m/s, 357° | 0 W/m² | - |
| 1778039385 | 16.67° C | 75% | 1007.2 hPa | 0 mm | 2.24 m/s, 21° | 0 W/m² | - |
| 1778039083 | 17.22° C | 75% | 1007.1 hPa | 0 mm | 2.24 m/s, 282° | 0 W/m² | - |
| 1778038780 | 17.22° C | 75% | 1007 hPa | 0 mm | 2.68 m/s, 348° | 0 W/m² | - |
| 1778038477 | 17.22° C | 75% | 1006.8 hPa | 0 mm | 2.24 m/s, 286° | 0 W/m² | - |
| 1778038174 | 17.22° C | 75% | 1006.8 hPa | 0 mm | 0.89 m/s, 308° | 0 W/m² | - |
| 1778037871 | 17.22° C | 75% | 1006.6 hPa | 0 mm | 2.24 m/s, 300° | 0 W/m² | - |
| 1778037567 | 17.22° C | 75% | 1006.5 hPa | 0 mm | 1.79 m/s, 309° | 0 W/m² | - |
| 1778037265 | 17.78° C | 75% | 1006.1 hPa | 0 mm | 1.79 m/s, 291° | 0 W/m² | - |
| 1778036962 | 17.78° C | 75% | 1006.1 hPa | 0 mm | 0.89 m/s, 255° | 0 W/m² | - |
| 1778036660 | 17.78° C | 75% | 1006.1 hPa | 0 mm | 2.68 m/s, 291° | 0 W/m² | - |
| 1778036357 | 17.78° C | 75% | 1005.8 hPa | 0 mm | 2.68 m/s, 286° | 0 W/m² | - |
| 1778036054 | 17.78° C | 75% | 1005.7 hPa | 0 mm | 1.79 m/s, 339° | 0 W/m² | - |
| 1778035750 | 17.78° C | 75% | 1006 hPa | 0 mm | 2.68 m/s, 356° | 0 W/m² | - |
| 1778035448 | 18.33° C | 75% | 1005.5 hPa | 0 mm | 1.79 m/s, 319° | 0 W/m² | - |
| 1778035143 | 18.33° C | 75% | 1005.8 hPa | 0 mm | 1.79 m/s, 309° | 0 W/m² | - |
| 1778034841 | 18.33° C | 76% | 1005.4 hPa | 0 mm | 2.24 m/s, 282° | 0 W/m² | - |
| 1778034537 | 18.33° C | 75% | 1005.3 hPa | 0 mm | 1.79 m/s, 350° | 0 W/m² | - |
| 1778034235 | 18.33° C | 75% | 1005.3 hPa | 0 mm | 1.79 m/s, 296° | 0 W/m² | - |
* Rain latest hour (hover to see other rain measurements)
** Current wind speed in m/s (hover to see current wind gust speed)